Showing default

CYGFM01, 41887

Orbit data source: Space-Track

CYGFM01, 41887 is an American payload satellite in LEO that was launched on Thu, 15 Dec 2016 UTC via a PEGASUS XL launch vehicle from the Pegasus Launch, Eastern Range Air Space (ERAS). Payload-class satellites include a variety of spacecraft equipped with specific instruments for various scientific and technological missions. These include communications satellites like Starlink; space stations such as the ISS; scientific satellites like the Hubble; Earth observation satellites from companies like Planet Labs, Umbra, and HawkEye 360; GPS; miniature CubeSats for education and research; and military/defense satellites.

Loading next visibility...
Identifier
41887, 2016-078D
Orbit
LEO
Last TLE update
1 day ago
Origin
Manufacturer
SST-US
Mission
Extended mission Civil Science
Bus & Motor
CYGNSS, Unknown motor
Mass
29 kg wet, 29 kg dry
Launch date (UTC)
2016-12-15 (9 years ago)
Launch vehicle
PEGASUS XL
Launch site
Pegasus Launch, Eastern Range Air Space (ERAS)
Object type
Payload
Rocket body
Debris
Shape & HBR
Half Hex Cyl + 2 Pan, 1.7 m
Radar Cross Section
0.450 m², Medium (>0.1 m² and < 1m²)

Expand to show TLE details & history

TLE from 1 day ago
0 CYGFM01
1 41887U 16078D   25182.01488976  .00009655  00000-0  22453-3 0  9995
2 41887  34.9449  40.3244 0008226  65.5451 294.6126 15.41470697474227
Epoch: 2025-07-01T00:21Z
TLE epoch observation values (Epoch: 2025-07-01T00:21:26.475Z)
Latitude
Longitude
115.64767°
Altitude
438.328 km
Speed
7.653 km/s
True Right ascension
02h 41m 17s
True Declination
0° 00' 00"
Sunlit
Object was in daylight at epoch
Visualization orbit readout
Latitude
-22.04177°
Longitude
-36.133°
Altitude
450.524 km
Speed
7.641 km/s
Apparent Right ascension
19h 56m 49s
Apparent Declination
-58° 04' 54"
Sunlit
Object is in full shadow
Visualization observer readout
Local Sidereal Time
13:51:44
Azimuth
140.6° SSE
Elevation
-33.617°
Doppler factor
1
Orbital elements
Apogee altitude
450.666 km
Perigee altitude
439.44 km
Semi-major axis
6,823.19 km
Eccentricity
0.00082
Inclination
34.9449°
RAAN
40.3244°
Arg. of periapsis
65.5451°
True anomaly
Unknown
Mean anomaly
294.6126°
Eccentric anomaly
Unknown
Mean motion
3.8509 °/min
Orbital period
93.48 mins
BSTAR
0.00022453
Loading maneuver chart data...
Loading SW <> Apogee altitude chart data...
Loading historical data...
Loading historical data...
Loading historical data...
Loading historical data...
Loading historical data...
Loading historical data...
Loading historical data...

CYGFM01 Visibility forecast

Observer location: undefined°, undefined°

Span
Click to sort rows by Start time (UTC) header in descending order
Start Az.
Max El. time (UTC)
Max El. Az.
Max El.
End time (UTC)
End Az.
5 mins2025-07-02 18:35:42.334Z217.676° SW2025-07-02 18:37:42.334Z178.095° S22.253°2025-07-02 18:40:42.334Z112.325° ESE
4 mins2025-07-02 20:14:42.334Z230.913° WSW2025-07-02 20:16:42.334Z164.17° S29.02°2025-07-02 20:18:42.334Z120.168° SE
4 mins2025-07-02 21:52:42.334Z236.287° WSW2025-07-02 21:54:42.334Z189.288° SSW20.859°2025-07-02 21:56:42.334Z148.538° SSE
|